[[{"header":{"parameterUnit":"m.s-1","parameterCategory":2,"la1":30.2992,"la2":30.254,"lo1":-89.0895,"lo2":-89.0443,"dy":0.0025,"dx":0.0025,"nx":19,"ny":19,"refTime":"2026-04-20T03:00:00:Z","depth":"0","parameterNumber":2,"parameterNumberName":"U-component_of_CURRENTS"},"data":[0,0,0,-0.3394,-0.3396,-0.3486,-0.3487,-0.3543,-0.3544,0,0,0,0,0,0,0,0,0,0,0,-0.3343,-0.3343,-0.3394,-0.3396,-0.3486,-0.3487,-0.3543,-0.3544,0,0,0,0,0,0,0,0,0,0,0,-0.3343,-0.3343,-0.3344,-0.3397,-0.3486,-0.3487,-0.3543,-0.3486,0,0,0,0,0,0,0,0,0,0,-0.3404,-0.3359,-0.3343,-0.3344,-0.3398,-0.3486,-0.3487,-0.3484,-0.349,-0.349,0,-0.3503,0,-0.3539,-0.3547,-0.3547,0,0,0,-0.3382,-0.3354,-0.3397,-0.3344,-0.3399,-0.3486,-0.3442,-0.3487,-0.3494,-0.3497,-0.3504,-0.3507,-0.354,-0.3548,-0.3548,-0.3659,-0.366,0,0,-0.3377,-0.3341,-0.3393,-0.3401,-0.342,-0.3439,-0.3445,-0.3492,-0.3485,-0.3504,-0.3509,-0.3541,-0.3548,-0.3548,-0.3658,-0.3659,0,0,0,-0.3373,-0.3337,-0.338,-0.3397,-0.3427,-0.3442,-0.3449,-0.3482,-0.3502,-0.351,-0.3542,-0.3548,-0.3549,-0.3657,-0.3658,-0.3706,0,0,0,-0.3369,-0.3337,-0.3378,-0.3355,-0.3426,-0.3462,-0.3437,-0.3498,-0.3505,-0.3541,-0.3548,-0.355,-0.3656,-0.3658,-0.3703,-0.3734,0,0,0,-0.3339,-0.3334,-0.3348,-0.3353,-0.3404,-0.3463,-0.3484,-0.35,-0.3525,-0.3548,-0.355,-0.3656,-0.3658,-0.37,-0.3729,-0.3765,0,0,0,-0.3295,-0.333,-0.3346,-0.3405,-0.3403,-0.3514,-0.3484,-0.3547,-0.3572,-0.3549,-0.3656,-0.3658,-0.3699,-0.3726,-0.3762,-0.3691,-0.3699,0,0,-0.3324,-0.3331,-0.3375,-0.3394,-0.3501,-0.3501,-0.3605,-0.3612,-0.3599,-0.3632,-0.3635,-0.3704,-0.3728,-0.3764,-0.38,-0.3804,0,0,0,-0.3377,-0.3397,-0.3437,-0.3498,-0.3578,-0.364,-0.3664,-0.3676,-0.3702,-0.3627,-0.3729,-0.3744,-0.3764,-0.3716,-0.372,-0.368,-0.3667,-0.3667,-0.3667,-0.3326,-0.3406,-0.3477,-0.3574,-0.3647,-0.3737,-0.3785,-0.3803,-0.3774,-0.3795,-0.3801,-0.3888,-0.3838,-0.384,-0.3801,-0.3816,-0.3817,-0.3817,-0.3817,-0.3351,-0.3381,-0.3493,-0.3584,-0.3682,-0.3762,-0.388,-0.388,-0.3936,-0.3888,-0.3904,-0.3791,-0.3847,-0.3804,-0.382,-0.382,-0.3819,-0.3819,-0.3819,-0.3284,-0.3308,-0.3383,-0.3504,-0.3625,-0.3753,-0.3865,-0.3936,-0.3973,-0.4008,-0.3932,-0.393,-0.3874,-0.3999,-0.4,-0.4,-0.4,-0.4,-0.4001,-0.3154,-0.3242,-0.3277,-0.3422,-0.349,-0.3628,-0.3841,-0.3917,-0.3988,-0.3995,-0.3994,-0.3905,-0.3943,-0.3916,-0.4006,-0.4005,-0.4004,-0.4004,-0.4003,-0.3028,-0.3066,-0.3113,-0.3173,-0.3346,-0.3414,-0.3689,-0.3853,-0.3963,-0.3971,-0.393,-0.3986,-0.3964,-0.3959,-0.3933,-0.4021,-0.4021,-0.4021,-0.4021,-0.2892,-0.2935,-0.2942,-0.2999,-0.312,-0.3299,-0.3408,-0.362,-0.3799,-0.3828,-0.3918,-0.3849,-0.385,-0.3818,-0.3816,-0.3785,-0.3835,-0.3835,-0.3835,-0.2769,-0.281,-0.2745,-0.2841,-0.2983,-0.3129,-0.3164,-0.3407,-0.3692,-0.3827,-0.3885,-0.3892,-0.379,-0.3795,-0.3739,-0.3739,-0.3688,0,0]},{"header":{"parameterUnit":"m.s-1","parameterCategory":2,"la1":30.2992,"la2":30.254,"lo1":-89.0895,"lo2":-89.0443,"dy":0.0025,"dx":0.0025,"nx":19,"ny":19,"refTime":"2026-04-20T03:00:00:Z","depth":"0","parameterNumber":3,"parameterNumberName":"V-component_of_CURRENTS"},"data":[0,0,0,-0.0403,-0.0401,-0.0249,-0.0248,-0.0017,-0.0015,0,0,0,0,0,0,0,0,0,0,0,-0.0459,-0.0459,-0.0403,-0.0401,-0.0249,-0.0248,-0.0017,-0.0015,0,0,0,0,0,0,0,0,0,0,0,-0.0459,-0.0459,-0.0458,-0.04,-0.025,-0.0248,-0.0017,-0.0135,0,0,0,0,0,0,0,0,0,0,-0.0284,-0.0358,-0.0459,-0.0458,-0.0399,-0.025,-0.0248,-0.014,-0.0127,-0.0083,0,-0.0079,0,-0.005,-0.0001,-0.0,0,0,0,-0.0374,-0.0369,-0.0325,-0.0458,-0.0398,-0.025,-0.031,-0.0133,-0.0118,-0.0065,-0.0076,-0.0067,-0.0046,0.0001,0.0002,0.0133,0.0133,0,0,-0.0382,-0.0425,-0.0336,-0.0317,-0.0384,-0.0315,-0.0306,-0.0124,-0.0121,-0.0075,-0.0062,-0.0043,0.0002,0.0003,0.0133,0.0133,0,0,0,-0.0424,-0.0432,-0.0392,-0.0327,-0.0307,-0.0311,-0.03,-0.0128,-0.0115,-0.0059,-0.004,0.0003,0.0006,0.0133,0.0133,-0.0011,0,0,0,-0.0428,-0.0457,-0.0396,-0.0419,-0.0312,-0.0223,-0.0309,-0.0127,-0.0106,-0.0041,0.0003,0.0008,0.0133,0.0133,-0.0007,-0.0084,0,0,0,-0.0462,-0.0461,-0.0451,-0.0422,-0.0368,-0.0226,-0.0201,-0.0122,-0.0095,0.0,0.0008,0.0133,0.0133,-0.0003,-0.0076,-0.0047,0,0,0,-0.0498,-0.0535,-0.0452,-0.0484,-0.037,-0.0318,-0.0201,-0.0141,-0.0072,0.0004,0.0133,0.0133,-0.0002,-0.0071,-0.0044,0.003,0.0021,0,0,-0.0574,-0.0545,-0.0564,-0.0488,-0.0494,-0.0335,-0.0309,-0.0168,-0.0055,0.0082,0.0085,-0.0008,-0.0075,-0.0046,0.0013,0.0004,0,0,0,-0.0608,-0.0629,-0.0613,-0.0593,-0.0512,-0.043,-0.028,-0.0196,-0.0068,-0.0018,0.0027,-0.0011,0.0012,0.0065,0.0058,0.0445,0.0131,0.0131,0.0131,-0.0758,-0.0719,-0.076,-0.0698,-0.0647,-0.0486,-0.0403,-0.0253,-0.014,-0.0102,-0.0102,-0.0147,-0.0094,-0.0098,0.0299,-0.0063,-0.0063,-0.0064,-0.0064,-0.0905,-0.094,-0.0875,-0.0901,-0.0785,-0.0729,-0.0515,-0.0411,-0.0261,-0.0186,-0.0154,-0.0059,-0.0114,0.0314,-0.0073,-0.0071,-0.007,-0.0069,-0.0069,-0.1021,-0.1037,-0.1037,-0.1061,-0.1025,-0.0877,-0.0811,-0.0621,-0.0405,-0.0376,-0.0219,-0.0215,0.0145,-0.0333,-0.0334,-0.0334,-0.0334,-0.0334,-0.0334,-0.1142,-0.1144,-0.1223,-0.1222,-0.1241,-0.1194,-0.0973,-0.0839,-0.0551,-0.0363,-0.036,0.0192,-0.0227,-0.0235,-0.0338,-0.0338,-0.0337,-0.0337,-0.0336,-0.1293,-0.1281,-0.1416,-0.1464,-0.1505,-0.1516,-0.1287,-0.0933,-0.0716,-0.0553,0.0183,-0.0306,-0.0235,-0.0226,-0.023,-0.0326,-0.0326,-0.0326,-0.0326,-0.1387,-0.1395,-0.158,-0.1693,-0.1758,-0.1668,-0.1514,-0.1054,-0.0227,0.0245,0.0406,0.0526,0.0508,0.0632,0.0622,0.0639,0.0766,0.0769,0.077,-0.1483,-0.1533,-0.1684,-0.1786,-0.1874,-0.1825,-0.1657,-0.1071,0.022,0.0855,0.0934,0.0888,0.1103,0.1044,0.1269,0.1223,0.1261,0,0]}],[{"header":{"parameterUnit":"m.s-1","parameterCategory":2,"la1":30.2992,"la2":30.254,"lo1":-89.0895,"lo2":-89.0443,"dy":0.0025,"dx":0.0025,"nx":19,"ny":19,"refTime":"2026-04-20T03:00:00:Z","depth":"2","parameterNumber":2,"parameterNumberName":"U-component_of_CURRENTS"},"data":[0,0,0,-0.3289,-0.3292,-0.3385,-0.3385,-0.3443,-0.3443,0,0,0,0,0,0,0,0,0,0,0,-0.3238,-0.3238,-0.3289,-0.3292,-0.3385,-0.3385,-0.3442,-0.3443,0,0,0,0,0,0,0,0,0,0,0,-0.3238,-0.3238,-0.3239,-0.3292,-0.3385,-0.3385,-0.3442,-0.3384,0,0,0,0,0,0,0,0,0,0,-0.33,-0.3255,-0.3238,-0.3239,-0.3293,-0.3385,-0.3385,-0.3382,-0.3388,-0.3387,0,-0.3401,0,-0.3437,-0.3447,-0.3447,0,0,0,-0.3278,-0.325,-0.3293,-0.3239,-0.3294,-0.3385,-0.3339,-0.3385,-0.3392,-0.3394,-0.3402,-0.3405,-0.3438,-0.3447,-0.3447,-0.3557,-0.3557,0,0,-0.3273,-0.3238,-0.3288,-0.3297,-0.3317,-0.3336,-0.3342,-0.339,-0.3384,-0.3402,-0.3407,-0.3439,-0.3447,-0.3448,-0.3556,-0.3557,0,0,0,-0.3267,-0.3234,-0.3276,-0.3293,-0.3324,-0.3339,-0.3346,-0.3381,-0.3401,-0.3408,-0.344,-0.3448,-0.3448,-0.3555,-0.3556,-0.3605,0,0,0,-0.3263,-0.3233,-0.3274,-0.3252,-0.3323,-0.3361,-0.3336,-0.3396,-0.3404,-0.3439,-0.3448,-0.3449,-0.3554,-0.3556,-0.3602,-0.3632,0,0,0,-0.3234,-0.323,-0.3244,-0.325,-0.3302,-0.3361,-0.3382,-0.3399,-0.3424,-0.3447,-0.3449,-0.3554,-0.3555,-0.3599,-0.3627,-0.3662,0,0,0,-0.3191,-0.3226,-0.3243,-0.3301,-0.3301,-0.3411,-0.3382,-0.3446,-0.3472,-0.3448,-0.3554,-0.3556,-0.3598,-0.3624,-0.3659,-0.3566,-0.3572,0,0,-0.322,-0.3228,-0.3271,-0.329,-0.3396,-0.3397,-0.35,-0.351,-0.3498,-0.3529,-0.3532,-0.3603,-0.3627,-0.3662,-0.3674,-0.3676,0,0,0,-0.3273,-0.3292,-0.3332,-0.3393,-0.3471,-0.3534,-0.3559,-0.3572,-0.36,-0.3525,-0.3627,-0.3642,-0.3661,-0.36,-0.3603,-0.3565,-0.3565,-0.3565,-0.3564,-0.3226,-0.3303,-0.3372,-0.3467,-0.354,-0.363,-0.3678,-0.3698,-0.367,-0.3693,-0.3699,-0.3785,-0.3721,-0.3722,-0.3714,-0.3714,-0.3715,-0.3715,-0.3715,-0.3251,-0.328,-0.3389,-0.3479,-0.3576,-0.3656,-0.3772,-0.3775,-0.3832,-0.3785,-0.3801,-0.3676,-0.3728,-0.3719,-0.3719,-0.3718,-0.3717,-0.3717,-0.3717,-0.3187,-0.321,-0.3285,-0.3404,-0.3524,-0.365,-0.376,-0.3832,-0.387,-0.3905,-0.3814,-0.3811,-0.3802,-0.3897,-0.3897,-0.3898,-0.3898,-0.3898,-0.3898,-0.3061,-0.3148,-0.3183,-0.3326,-0.3392,-0.3529,-0.3739,-0.3813,-0.3875,-0.3875,-0.3874,-0.3846,-0.384,-0.3814,-0.3903,-0.3902,-0.3902,-0.3901,-0.3901,-0.2939,-0.2978,-0.3024,-0.3082,-0.3251,-0.3288,-0.3578,-0.373,-0.3843,-0.3843,-0.3857,-0.3856,-0.3831,-0.3826,-0.38,-0.3881,-0.3881,-0.3881,-0.3881,-0.2808,-0.285,-0.2856,-0.291,-0.3026,-0.3164,-0.3184,-0.3262,-0.3463,-0.3462,-0.3478,-0.3382,-0.3394,-0.3338,-0.3344,-0.3305,-0.3257,-0.3255,-0.3254,-0.2688,-0.2727,-0.2663,-0.2755,-0.289,-0.2965,-0.2823,-0.2676,-0.2847,-0.3218,-0.3251,-0.3862,-0.3765,-0.3766,-0.3715,-0.3712,-0.3664,0,0]},{"header":{"parameterUnit":"m.s-1","parameterCategory":2,"la1":30.2992,"la2":30.254,"lo1":-89.0895,"lo2":-89.0443,"dy":0.0025,"dx":0.0025,"nx":19,"ny":19,"refTime":"2026-04-20T03:00:00:Z","depth":"2","parameterNumber":3,"parameterNumberName":"V-component_of_CURRENTS"},"data":[0,0,0,-0.038,-0.0378,-0.0229,-0.0228,0.0002,0.0004,0,0,0,0,0,0,0,0,0,0,0,-0.0435,-0.0435,-0.038,-0.0378,-0.0229,-0.0228,0.0002,0.0004,0,0,0,0,0,0,0,0,0,0,0,-0.0435,-0.0435,-0.0435,-0.0377,-0.0229,-0.0228,0.0001,-0.0115,0,0,0,0,0,0,0,0,0,0,-0.0262,-0.0335,-0.0435,-0.0435,-0.0377,-0.0229,-0.0228,-0.012,-0.0107,-0.0063,0,-0.006,0,-0.0031,0.0018,0.0018,0,0,0,-0.0351,-0.0347,-0.0303,-0.0435,-0.0376,-0.023,-0.0288,-0.0113,-0.0099,-0.0046,-0.0056,-0.0048,-0.0027,0.0019,0.002,0.0151,0.0151,0,0,-0.0359,-0.0402,-0.0314,-0.0295,-0.0361,-0.0293,-0.0284,-0.0105,-0.0101,-0.0055,-0.0042,-0.0024,0.002,0.0022,0.0151,0.0151,0,0,0,-0.0401,-0.0408,-0.0369,-0.0304,-0.0285,-0.029,-0.0279,-0.0109,-0.0096,-0.004,-0.0021,0.0021,0.0024,0.0151,0.0151,0.0009,0,0,0,-0.0404,-0.0434,-0.0373,-0.0396,-0.029,-0.0203,-0.0288,-0.0108,-0.0087,-0.0022,0.0021,0.0026,0.0152,0.0151,0.0013,-0.0064,0,0,0,-0.0438,-0.0437,-0.0427,-0.0399,-0.0345,-0.0205,-0.018,-0.0102,-0.0076,0.0018,0.0027,0.0152,0.0151,0.0017,-0.0056,-0.003,0,0,0,-0.0474,-0.051,-0.0429,-0.0459,-0.0347,-0.0295,-0.0181,-0.0121,-0.0053,0.0022,0.0152,0.0151,0.0018,-0.0052,-0.0027,0.0037,0.0027,0,0,-0.0548,-0.052,-0.0538,-0.0463,-0.0468,-0.0312,-0.0286,-0.0147,-0.0035,0.0101,0.0104,0.0012,-0.0056,-0.0029,0.0022,0.0013,0,0,0,-0.0581,-0.0601,-0.0586,-0.0566,-0.0485,-0.0405,-0.0256,-0.0174,-0.0047,0.0001,0.0047,0.0009,0.0031,0.0077,0.007,0.015,0.015,0.015,0.015,-0.0729,-0.0689,-0.0729,-0.0668,-0.0617,-0.0459,-0.0378,-0.0228,-0.0117,-0.0079,-0.0081,-0.0126,-0.0079,-0.0084,-0.004,-0.0041,-0.0041,-0.0042,-0.0042,-0.0873,-0.0908,-0.0843,-0.0869,-0.0754,-0.0699,-0.0488,-0.0385,-0.0237,-0.0162,-0.0133,-0.0045,-0.01,-0.0053,-0.0051,-0.0049,-0.0048,-0.0047,-0.0047,-0.0988,-0.1004,-0.1004,-0.1027,-0.0993,-0.0846,-0.0783,-0.0594,-0.0381,-0.0353,-0.0206,-0.0202,-0.0204,-0.0313,-0.0313,-0.0313,-0.0313,-0.0314,-0.0314,-0.1108,-0.1111,-0.1189,-0.1188,-0.1207,-0.1161,-0.0944,-0.0814,-0.0534,-0.035,-0.0347,-0.0216,-0.0207,-0.0215,-0.0318,-0.0317,-0.0316,-0.0316,-0.0316,-0.1259,-0.1247,-0.1381,-0.1429,-0.147,-0.1474,-0.1257,-0.0914,-0.0704,-0.0546,-0.03,-0.0299,-0.023,-0.0221,-0.0226,-0.0325,-0.0325,-0.0325,-0.0325,-0.1353,-0.1361,-0.1544,-0.1656,-0.1721,-0.1624,-0.1475,-0.1064,-0.0607,-0.0357,-0.0356,-0.0311,-0.0308,-0.024,-0.023,-0.0234,-0.0336,-0.0336,-0.0337,-0.1449,-0.1498,-0.1649,-0.175,-0.1837,-0.1772,-0.1607,-0.1115,-0.0482,-0.0343,-0.0421,-0.0314,-0.024,-0.024,-0.0122,-0.0112,-0.0113,0,0]}],[{"header":{"parameterUnit":"m.s-1","parameterCategory":2,"la1":30.2992,"la2":30.254,"lo1":-89.0895,"lo2":-89.0443,"dy":0.0025,"dx":0.0025,"nx":19,"ny":19,"refTime":"2026-04-20T03:00:00:Z","depth":"4","parameterNumber":2,"parameterNumberName":"U-component_of_CURRENTS"},"data":[0,0,0,-0.2242,-0.2247,-0.2484,-0.2485,-0.2657,-0.2658,0,0,0,0,0,0,0,0,0,0,0,-0.216,-0.2162,-0.2242,-0.2248,-0.2484,-0.2485,-0.2657,-0.2658,0,0,0,0,0,0,0,0,0,0,0,-0.2159,-0.2161,-0.2164,-0.2248,-0.2484,-0.2485,-0.2657,-0.2511,0,0,0,0,0,0,0,0,0,0,-0.2297,-0.2243,-0.2161,-0.2164,-0.225,-0.2483,-0.2485,-0.2505,-0.252,-0.2513,0,-0.2559,0,-0.2611,-0.2667,-0.2667,0,0,0,-0.2249,-0.2231,-0.2292,-0.2164,-0.2252,-0.2483,-0.2377,-0.2515,-0.2531,-0.2531,-0.2562,-0.257,-0.2614,-0.2668,-0.2668,-0.2836,-0.2837,0,0,-0.2236,-0.2202,-0.2282,-0.2303,-0.2325,-0.237,-0.2385,-0.2526,-0.2545,-0.2563,-0.2575,-0.2616,-0.2669,-0.267,-0.2835,-0.2836,0,0,0,-0.2197,-0.2193,-0.2255,-0.2295,-0.2348,-0.2377,-0.2394,-0.2539,-0.256,-0.2577,-0.2618,-0.2669,-0.2671,-0.2834,-0.2835,-0.2891,0,0,0,-0.2189,-0.2171,-0.2249,-0.2231,-0.2346,-0.2465,-0.2404,-0.255,-0.2569,-0.2618,-0.2669,-0.2672,-0.2833,-0.2835,-0.2887,-0.2911,0,0,0,-0.2147,-0.2167,-0.2197,-0.2229,-0.2331,-0.2465,-0.2495,-0.2556,-0.2593,-0.2667,-0.2672,-0.2832,-0.2834,-0.2884,-0.2906,-0.2935,0,0,0,-0.2099,-0.2155,-0.2197,-0.2283,-0.2329,-0.2487,-0.2495,-0.2623,-0.2695,-0.267,-0.2833,-0.2835,-0.2883,-0.2903,-0.2932,-0.2557,0,0,0,-0.2135,-0.2158,-0.2211,-0.2255,-0.2393,-0.2454,-0.2605,-0.27,-0.2718,-0.2775,-0.2781,-0.2888,-0.2905,-0.2934,-0.2685,0,0,0,0,-0.2201,-0.2236,-0.2288,-0.2386,-0.2499,-0.2617,-0.2718,-0.2761,-0.2856,-0.2771,-0.2916,-0.2925,-0.2941,-0.2715,-0.2846,-0.2845,-0.2845,-0.2845,-0.2845,-0.2171,-0.2256,-0.2352,-0.2471,-0.2581,-0.2742,-0.2834,-0.291,-0.2917,-0.2972,-0.2991,-0.308,-0.2846,-0.3014,-0.3014,-0.3015,-0.3015,-0.3015,-0.3015,-0.2197,-0.2238,-0.2384,-0.2508,-0.2652,-0.2786,-0.2952,-0.2994,-0.3098,-0.3077,-0.309,-0.2815,-0.3021,-0.302,-0.3019,-0.3019,-0.3018,-0.3018,-0.3017,-0.2132,-0.2161,-0.228,-0.2455,-0.2635,-0.2813,-0.2936,-0.3068,-0.3143,-0.3187,-0.2932,-0.3121,-0.3091,-0.3192,-0.3192,-0.3192,-0.3193,-0.3193,-0.3193,-0.1987,-0.2108,-0.2191,-0.2396,-0.2505,-0.268,-0.2934,-0.2994,-0.3117,-0.2962,-0.3205,-0.3139,-0.3133,-0.3103,-0.3197,-0.3196,-0.3196,-0.3195,-0.3195,-0.1856,-0.193,-0.2019,-0.2126,-0.2355,-0.2452,-0.2754,-0.2803,-0.284,-0.2772,-0.283,-0.2847,-0.2789,-0.2792,-0.2746,-0.2739,-0.2735,-0.273,0,-0.1731,-0.1784,-0.1859,-0.1952,-0.2054,-0.2297,-0.2287,-0.2421,-0.2527,-0.2437,-0.2819,-0.2883,-0.2892,-0.2825,-0.282,-0.2764,0,0,0,-0.1627,-0.1669,-0.1656,-0.1786,-0.189,-0.2026,-0.2264,-0.2214,-0.2527,-0.2458,-0.2617,-0.2647,-0.2986,-0.3209,-0.316,-0.3153,-0.3101,0,0]},{"header":{"parameterUnit":"m.s-1","parameterCategory":2,"la1":30.2992,"la2":30.254,"lo1":-89.0895,"lo2":-89.0443,"dy":0.0025,"dx":0.0025,"nx":19,"ny":19,"refTime":"2026-04-20T03:00:00:Z","depth":"4","parameterNumber":3,"parameterNumberName":"V-component_of_CURRENTS"},"data":[0,0,0,-0.0244,-0.0242,-0.0145,-0.0144,0.0035,0.0037,0,0,0,0,0,0,0,0,0,0,0,-0.0279,-0.0279,-0.0244,-0.0242,-0.0145,-0.0144,0.0035,0.0037,0,0,0,0,0,0,0,0,0,0,0,-0.0279,-0.0279,-0.0279,-0.0242,-0.0145,-0.0144,0.0034,-0.0047,0,0,0,0,0,0,0,0,0,0,-0.0146,-0.0201,-0.0279,-0.0279,-0.0241,-0.0145,-0.0144,-0.0051,-0.0042,-0.0,0,-0.0002,0,0.0014,0.0048,0.0048,0,0,0,-0.022,-0.0209,-0.0181,-0.0279,-0.0241,-0.0146,-0.0182,-0.0046,-0.0036,0.0012,0.0,0.0007,0.0017,0.0049,0.005,0.0162,0.0162,0,0,-0.0225,-0.0255,-0.0189,-0.0175,-0.0236,-0.0186,-0.018,-0.004,-0.0038,0.0001,0.0011,0.002,0.005,0.0051,0.0162,0.0162,0,0,0,-0.0256,-0.0259,-0.0235,-0.0182,-0.0173,-0.0184,-0.0177,-0.0044,-0.0036,0.0013,0.0022,0.0051,0.0053,0.0162,0.0162,0.0039,0,0,0,-0.0258,-0.0278,-0.0238,-0.0253,-0.0177,-0.0117,-0.0184,-0.0046,-0.003,0.0021,0.0051,0.0055,0.0162,0.0162,0.0042,-0.003,0,0,0,-0.028,-0.028,-0.0275,-0.0255,-0.0223,-0.0119,-0.0102,-0.0042,-0.0024,0.0049,0.0055,0.0162,0.0162,0.0045,-0.0023,-0.0016,0,0,0,-0.0302,-0.0328,-0.0276,-0.0301,-0.0224,-0.0191,-0.0103,-0.006,-0.0008,0.0052,0.0162,0.0162,0.0046,-0.0019,-0.0013,-0.0081,0,0,0,-0.0352,-0.0335,-0.035,-0.0302,-0.0313,-0.0202,-0.0187,-0.0081,0.0011,0.0125,0.0127,0.0041,-0.0023,-0.0015,-0.0082,0,0,0,0,-0.0377,-0.0394,-0.0386,-0.038,-0.0327,-0.0279,-0.0166,-0.0102,-0.0001,0.0039,0.0075,0.0039,0.0048,0.0019,0.0162,0.0162,0.0162,0.0162,0.0162,-0.0476,-0.0455,-0.0492,-0.0459,-0.0429,-0.0322,-0.0268,-0.0151,-0.0056,-0.0026,-0.0036,-0.0084,-0.0118,0.0005,0.0005,0.0004,0.0004,0.0003,0.0003,-0.0576,-0.0604,-0.058,-0.0612,-0.0546,-0.0516,-0.0362,-0.0282,-0.0174,-0.0103,-0.0087,-0.008,-0.0008,-0.0006,-0.0004,-0.0003,-0.0002,-0.0001,-0.0001,-0.0648,-0.0662,-0.0686,-0.0732,-0.0735,-0.0643,-0.0614,-0.0472,-0.0302,-0.0288,-0.025,-0.0146,-0.0162,-0.0259,-0.0259,-0.026,-0.026,-0.026,-0.026,-0.071,-0.0733,-0.0817,-0.0854,-0.0896,-0.0892,-0.0756,-0.0666,-0.0484,-0.0399,-0.0313,-0.0171,-0.0163,-0.0173,-0.0265,-0.0264,-0.0264,-0.0263,-0.0263,-0.0789,-0.0805,-0.0934,-0.1003,-0.1094,-0.108,-0.0973,-0.077,-0.0674,-0.0559,-0.0422,-0.0413,-0.0364,-0.035,-0.0366,-0.0518,-0.052,-0.0521,0,-0.0839,-0.0857,-0.1034,-0.116,-0.1238,-0.1185,-0.1086,-0.0943,-0.0708,-0.0712,-0.0655,-0.051,-0.0499,-0.0451,-0.044,-0.0464,0,0,0,-0.0893,-0.0942,-0.1074,-0.1201,-0.1296,-0.1159,-0.1052,-0.0978,-0.0762,-0.0665,-0.0552,-0.0544,-0.0433,-0.0279,-0.0181,-0.0171,-0.0182,0,0]}]]